Time,TemperatureF,DewpointF,PressureIn,WindDirection,WindDirectionDegrees,WindSpeedMPH,WindSpeedGustMPH,Humidity,HourlyPrecipIn,Conditions,Clouds,dailyrainin,SoftwareType,DateUTC
2013-07-14 00:02:00,73.0,72.0,30.27,South,170,0.0,0.0,96,0.01,,,0.13,,2013-07-14 04:02:00,
2013-07-14 00:11:00,73.0,72.0,30.28,South,170,0.0,0.0,96,0.01,,,0.14,,2013-07-14 04:11:00,
2013-07-14 00:22:00,73.0,72.0,30.28,South,170,0.0,0.0,96,0.01,,,0.14,,2013-07-14 04:22:00,
2013-07-14 00:32:00,73.0,72.0,30.28,South,170,0.0,0.0,96,0.01,,,0.11,,2013-07-14 04:32:00,
2013-07-14 00:42:00,73.0,72.0,30.28,South,170,0.0,0.0,96,0.01,,,0.11,,2013-07-14 04:42:00,
2013-07-14 00:53:00,73.0,72.0,30.29,South,170,0.0,0.0,96,0.01,,,0.11,,2013-07-14 04:53:00,
2013-07-14 01:02:00,73.0,72.0,30.29,South,170,0.0,0.0,96,0.01,,,0.11,,2013-07-14 05:02:00,
2013-07-14 01:11:00,73.0,72.0,30.29,South,170,0.0,1.0,96,0.00,,,0.11,,2013-07-14 05:11:00,
2013-07-14 01:23:00,73.0,72.0,30.29,South,170,0.0,2.0,96,0.00,,,0.11,,2013-07-14 05:23:00,
2013-07-14 01:32:00,73.0,72.0,30.29,South,170,0.0,2.0,96,0.00,,,0.09,,2013-07-14 05:32:00,
2013-07-14 01:43:00,73.0,72.0,30.29,South,170,0.0,2.0,96,0.00,,,0.09,,2013-07-14 05:43:00,
2013-07-14 01:53:00,73.0,72.0,30.29,West,263,0.0,5.0,96,0.00,,,0.09,,2013-07-14 05:53:00,
2013-07-14 02:01:00,73.0,72.0,30.29,West,263,0.0,0.0,96,0.00,,,0.09,,2013-07-14 06:01:00,
2013-07-14 02:12:00,73.0,72.0,30.29,West,263,0.0,0.0,96,0.00,,,0.09,,2013-07-14 06:12:00,
2013-07-14 02:22:00,73.0,72.0,30.29,West,263,0.0,0.0,96,0.00,,,0.09,,2013-07-14 06:22:00,
2013-07-14 02:32:00,73.0,72.0,30.29,West,263,0.0,0.0,96,0.00,,,0.09,,2013-07-14 06:32:00,
2013-07-14 02:42:00,72.0,71.0,30.29,West,263,0.0,0.0,96,0.00,,,0.09,,2013-07-14 06:42:00,
2013-07-14 02:53:00,73.0,72.0,30.29,West,263,0.0,0.0,97,0.00,,,0.09,,2013-07-14 06:53:00,
2013-07-14 03:02:00,73.0,72.0,30.29,West,263,0.0,0.0,97,0.00,,,0.09,,2013-07-14 07:02:00,
2013-07-14 03:22:00,72.0,71.0,30.30,West,263,0.0,0.0,97,0.00,,,0.09,,2013-07-14 07:22:00,
2013-07-14 03:33:00,72.0,71.0,30.30,West,263,0.0,0.0,97,0.00,,,0.08,,2013-07-14 07:33:00,
2013-07-14 03:43:00,72.0,71.0,30.30,West,263,0.0,0.0,97,0.00,,,0.08,,2013-07-14 07:43:00,
2013-07-14 03:53:00,72.0,71.0,30.30,West,263,0.0,0.0,97,0.00,,,0.08,,2013-07-14 07:53:00,
2013-07-14 04:01:00,72.0,71.0,30.30,West,263,0.0,0.0,97,0.00,,,0.08,,2013-07-14 08:01:00,
2013-07-14 04:22:00,72.0,71.0,30.30,West,263,0.0,0.0,97,0.00,,,0.08,,2013-07-14 08:22:00,
2013-07-14 04:32:00,72.0,71.0,30.30,West,263,0.0,0.0,97,0.00,,,0.08,,2013-07-14 08:32:00,
2013-07-14 04:42:00,72.0,71.0,30.30,West,263,0.0,0.0,97,0.00,,,0.08,,2013-07-14 08:42:00,
2013-07-14 04:53:00,72.0,71.0,30.31,West,263,0.0,0.0,97,0.00,,,0.08,,2013-07-14 08:53:00,
2013-07-14 05:01:00,72.0,71.0,30.31,West,263,0.0,0.0,97,0.00,,,0.08,,2013-07-14 09:01:00,
2013-07-14 05:11:00,72.0,71.0,30.31,West,263,0.0,0.0,97,0.00,,,0.08,,2013-07-14 09:11:00,
2013-07-14 05:22:00,72.0,71.0,30.31,West,263,0.0,0.0,97,0.00,,,0.08,,2013-07-14 09:22:00,
2013-07-14 05:32:00,72.0,71.0,30.31,West,263,0.0,0.0,97,0.00,,,0.07,,2013-07-14 09:32:00,
2013-07-14 05:42:00,72.0,71.0,30.31,West,263,0.0,0.0,97,0.00,,,0.07,,2013-07-14 09:42:00,
2013-07-14 05:53:00,72.0,71.0,30.31,West,263,0.0,0.0,97,0.00,,,0.07,,2013-07-14 09:53:00,
2013-07-14 06:01:00,72.0,71.0,30.32,West,263,0.0,0.0,97,0.00,,,0.07,,2013-07-14 10:01:00,
2013-07-14 06:12:00,72.0,71.0,30.32,West,263,0.0,0.0,97,0.00,,,0.07,,2013-07-14 10:12:00,
2013-07-14 06:22:00,72.0,71.0,30.32,West,263,0.0,0.0,97,0.00,,,0.07,,2013-07-14 10:22:00,
2013-07-14 06:32:00,72.0,71.0,30.32,West,263,0.0,0.0,97,0.00,,,0.07,,2013-07-14 10:32:00,
2013-07-14 06:42:00,72.0,71.0,30.32,West,263,0.0,0.0,97,0.00,,,0.07,,2013-07-14 10:42:00,
2013-07-14 06:53:00,72.0,71.0,30.33,West,263,0.0,0.0,97,0.00,,,0.07,,2013-07-14 10:53:00,
2013-07-14 07:02:00,72.0,71.0,30.33,West,263,0.0,0.0,97,0.00,,,0.07,,2013-07-14 11:02:00,
2013-07-14 07:11:00,72.0,71.0,30.33,West,263,0.0,0.0,97,0.00,,,0.07,,2013-07-14 11:11:00,
2013-07-14 07:22:00,72.0,71.0,30.34,West,263,0.0,0.0,97,0.00,,,0.07,,2013-07-14 11:22:00,
2013-07-14 07:32:00,73.0,72.0,30.34,West,263,0.0,3.0,97,0.00,,,0.07,,2013-07-14 11:32:00,
2013-07-14 07:43:00,73.0,72.0,30.34,West,259,1.0,3.0,98,0.00,,,0.07,,2013-07-14 11:43:00,
2013-07-14 07:53:00,73.0,72.0,30.34,WSW,256,0.0,1.0,97,0.00,,,0.07,,2013-07-14 11:53:00,
2013-07-14 08:02:00,73.0,72.0,30.34,WSW,256,0.0,1.0,97,0.00,,,0.07,,2013-07-14 12:02:00,
2013-07-14 08:12:00,74.0,73.0,30.34,WSW,256,0.0,1.0,97,0.00,,,0.07,,2013-07-14 12:12:00,
2013-07-14 08:22:00,74.0,73.0,30.35,WSW,256,0.0,2.0,97,0.00,,,0.07,,2013-07-14 12:22:00,
2013-07-14 08:33:00,75.0,74.0,30.35,NW,323,0.0,5.0,96,0.00,,,0.07,,2013-07-14 12:33:00,
2013-07-14 08:43:00,75.0,74.0,30.35,NW,323,0.0,5.0,96,0.00,,,0.07,,2013-07-14 12:43:00,
2013-07-14 08:52:00,76.0,73.0,30.34,WSW,239,1.0,5.0,91,0.00,,,0.07,,2013-07-14 12:52:00,
2013-07-14 09:01:00,76.0,73.0,30.34,WSW,239,1.0,5.0,91,0.00,,,0.07,,2013-07-14 13:01:00,
2013-07-14 09:11:00,76.0,73.0,30.34,WSW,239,1.0,5.0,91,0.00,,,0.07,,2013-07-14 13:11:00,
2013-07-14 09:22:00,77.0,73.0,30.34,NNW,336,0.0,6.0,88,0.00,,,0.07,,2013-07-14 13:22:00,
2013-07-14 09:32:00,78.0,74.0,30.34,WNW,283,0.0,5.0,87,0.00,,,0.07,,2013-07-14 13:32:00,
2013-07-14 09:42:00,78.0,73.0,30.34,WSW,238,1.0,5.0,85,0.00,,,0.07,,2013-07-14 13:42:00,
2013-07-14 09:53:00,79.0,74.0,30.34,North,5,0.0,4.0,84,0.00,,,0.07,,2013-07-14 13:53:00,
2013-07-14 10:02:00,78.0,72.0,30.34,WSW,248,2.0,5.0,83,0.00,,,0.07,,2013-07-14 14:02:00,
2013-07-14 10:11:00,78.0,72.0,30.34,WSW,248,2.0,5.0,83,0.00,,,0.07,,2013-07-14 14:11:00,
2013-07-14 10:33:00,79.0,74.0,30.34,NW,316,0.0,2.0,85,0.00,,,0.06,,2013-07-14 14:33:00,
2013-07-14 10:43:00,79.0,73.0,30.34,West,264,2.0,6.0,83,0.00,,,0.06,,2013-07-14 14:43:00,
2013-07-14 10:53:00,79.0,73.0,30.34,WNW,282,2.0,5.0,81,0.00,,,0.06,,2013-07-14 14:53:00,
2013-07-14 11:01:00,80.0,74.0,30.33,NNE,19,1.0,5.0,81,0.00,,,0.06,,2013-07-14 15:01:00,
2013-07-14 11:12:00,79.0,73.0,30.33,WNW,283,1.0,6.0,81,0.00,,,0.06,,2013-07-14 15:12:00,
2013-07-14 11:22:00,80.0,74.0,30.33,NNW,338,0.0,5.0,81,0.00,,,0.06,,2013-07-14 15:22:00,
2013-07-14 11:32:00,80.0,74.0,30.33,NNW,338,0.0,5.0,81,0.00,,,0.06,,2013-07-14 15:32:00,
2013-07-14 11:42:00,81.0,73.0,30.33,North,11,3.0,7.0,78,0.00,,,0.03,,2013-07-14 15:42:00,
2013-07-14 11:53:00,82.0,74.0,30.32,West,260,0.0,6.0,77,0.00,,,0.03,,2013-07-14 15:53:00,
2013-07-14 12:01:00,82.0,74.0,30.32,West,273,0.0,10.0,76,0.00,,,0.03,,2013-07-14 16:01:00,
2013-07-14 12:11:00,83.0,73.0,30.32,WSW,244,4.0,7.0,73,0.00,,,0.03,,2013-07-14 16:11:00,
2013-07-14 12:22:00,84.0,74.0,30.32,ENE,67,4.0,9.0,71,0.00,,,0.03,,2013-07-14 16:22:00,
2013-07-14 12:32:00,85.0,74.0,30.32,NNW,332,3.0,6.0,70,0.00,,,0.03,,2013-07-14 16:32:00,
2013-07-14 12:43:00,85.0,74.0,30.32,WNW,302,3.0,7.0,69,0.00,,,0.03,,2013-07-14 16:43:00,
2013-07-14 12:53:00,84.0,73.0,30.32,NW,313,2.0,7.0,70,0.00,,,0.03,,2013-07-14 16:53:00,
2013-07-14 13:03:00,85.0,73.0,30.32,SW,223,2.0,9.0,67,0.00,,,0.03,,2013-07-14 17:03:00,
2013-07-14 13:11:00,85.0,73.0,30.32,NNW,327,3.0,10.0,67,0.00,,,0.03,,2013-07-14 17:11:00,
2013-07-14 13:22:00,85.0,73.0,30.32,WNW,286,3.0,8.0,68,0.00,,,0.03,,2013-07-14 17:22:00,
2013-07-14 13:32:00,85.0,72.0,30.31,NW,322,2.0,9.0,66,0.00,,,0.03,,2013-07-14 17:32:00,
2013-07-14 13:43:00,85.0,72.0,30.31,North,9,2.0,10.0,66,0.00,,,0.03,,2013-07-14 17:43:00,
2013-07-14 13:53:00,84.0,73.0,30.31,NNW,327,1.0,9.0,69,0.00,,,0.03,,2013-07-14 17:53:00,
2013-07-14 14:01:00,85.0,73.0,30.31,NW,304,4.0,9.0,68,0.00,,,0.03,,2013-07-14 18:01:00,
2013-07-14 14:11:00,85.0,73.0,30.31,WNW,290,2.0,7.0,68,0.00,,,0.03,,2013-07-14 18:11:00,
2013-07-14 14:22:00,85.0,73.0,30.30,West,264,4.0,11.0,67,0.00,,,0.03,,2013-07-14 18:22:00,
2013-07-14 14:32:00,86.0,74.0,30.30,WNW,296,1.0,5.0,67,0.00,,,0.02,,2013-07-14 18:32:00,
2013-07-14 14:42:00,86.0,73.0,30.30,NNW,346,2.0,11.0,65,0.00,,,0.02,,2013-07-14 18:42:00,
2013-07-14 14:52:00,86.0,71.0,30.29,SSE,150,4.0,9.0,62,0.00,,,0.02,,2013-07-14 18:52:00,
2013-07-14 15:02:00,86.0,71.0,30.29,WSW,254,3.0,9.0,62,0.00,,,0.02,,2013-07-14 19:02:00,
2013-07-14 15:22:00,87.0,73.0,30.29,WSW,257,2.0,7.0,63,0.00,,,0.02,,2013-07-14 19:22:00,
2013-07-14 15:32:00,87.0,72.0,30.29,NNW,330,2.0,13.0,62,0.00,,,0.02,,2013-07-14 19:32:00,
2013-07-14 15:43:00,88.0,73.0,30.29,NW,308,3.0,7.0,62,0.00,,,0.02,,2013-07-14 19:43:00,
2013-07-14 15:53:00,88.0,72.0,30.28,West,260,3.0,10.0,60,0.00,,,0.02,,2013-07-14 19:53:00,
2013-07-14 16:02:00,88.0,73.0,30.28,SW,230,4.0,8.0,61,0.00,,,0.02,,2013-07-14 20:02:00,
2013-07-14 16:11:00,88.0,73.0,30.28,NW,324,3.0,9.0,62,0.00,,,0.02,,2013-07-14 20:11:00,
2013-07-14 16:22:00,87.0,72.0,30.27,NW,319,4.0,11.0,62,0.00,,,0.02,,2013-07-14 20:22:00,
2013-07-14 16:32:00,87.0,72.0,30.27,NW,319,4.0,11.0,62,0.00,,,0.02,,2013-07-14 20:32:00,
2013-07-14 16:43:00,88.0,72.0,30.27,West,265,5.0,12.0,60,0.00,,,0.02,,2013-07-14 20:43:00,
2013-07-14 16:53:00,88.0,73.0,30.27,West,267,0.0,10.0,61,0.00,,,0.02,,2013-07-14 20:53:00,
2013-07-14 17:02:00,88.0,72.0,30.27,SW,223,1.0,8.0,60,0.00,,,0.02,,2013-07-14 21:02:00,
2013-07-14 17:11:00,88.0,72.0,30.27,SW,236,0.0,6.0,59,0.00,,,0.02,,2013-07-14 21:11:00,
2013-07-14 17:22:00,88.0,72.0,30.27,WNW,291,2.0,10.0,59,0.00,,,0.02,,2013-07-14 21:22:00,
2013-07-14 17:32:00,87.0,71.0,30.26,WNW,282,4.0,11.0,59,0.00,,,0.02,,2013-07-14 21:32:00,
2013-07-14 17:43:00,87.0,70.0,30.26,West,271,4.0,9.0,58,0.00,,,0.02,,2013-07-14 21:43:00,
2013-07-14 17:52:00,88.0,72.0,30.27,NW,310,1.0,9.0,59,0.00,,,0.02,,2013-07-14 21:52:00,
2013-07-14 18:01:00,87.0,71.0,30.26,WSW,251,0.0,9.0,59,0.00,,,0.02,,2013-07-14 22:01:00,
2013-07-14 18:22:00,87.0,70.0,30.26,NW,307,1.0,7.0,58,0.00,,,0.02,,2013-07-14 22:22:00,
2013-07-14 18:32:00,86.0,72.0,30.26,SW,235,0.0,6.0,63,0.00,,,0.02,,2013-07-14 22:32:00,
2013-07-14 18:42:00,86.0,70.0,30.26,West,262,0.0,7.0,60,0.00,,,0.02,,2013-07-14 22:42:00,
2013-07-14 18:53:00,86.0,71.0,30.26,NW,314,0.0,7.0,62,0.00,,,0.02,,2013-07-14 22:53:00,
2013-07-14 19:01:00,86.0,73.0,30.26,NW,307,0.0,5.0,65,0.00,,,0.02,,2013-07-14 23:01:00,
2013-07-14 19:11:00,85.0,72.0,30.26,West,275,1.0,7.0,66,0.00,,,0.02,,2013-07-14 23:11:00,
2013-07-14 19:22:00,85.0,72.0,30.26,SW,229,1.0,6.0,66,0.00,,,0.02,,2013-07-14 23:22:00,
2013-07-14 19:32:00,84.0,72.0,30.25,SW,234,1.0,5.0,68,0.00,,,0.02,,2013-07-14 23:32:00,
2013-07-14 19:42:00,84.0,74.0,30.25,SW,234,0.0,5.0,71,0.00,,,0.02,,2013-07-14 23:42:00,
2013-07-14 19:53:00,84.0,74.0,30.25,SW,234,0.0,5.0,71,0.00,,,0.02,,2013-07-14 23:53:00,
2013-07-14 20:02:00,82.0,73.0,30.26,WSW,238,0.0,5.0,74,0.00,,,0.02,,2013-07-15 00:02:00,
2013-07-14 20:11:00,81.0,73.0,30.25,WSW,238,0.0,1.0,77,0.00,,,0.02,,2013-07-15 00:11:00,
2013-07-14 20:22:00,81.0,72.0,30.26,West,261,1.0,3.0,75,0.00,,,0.02,,2013-07-15 00:22:00,
2013-07-14 20:32:00,80.0,72.0,30.26,West,263,0.0,2.0,78,0.00,,,0.02,,2013-07-15 00:32:00,
2013-07-14 20:43:00,80.0,73.0,30.26,West,263,0.0,1.0,79,0.00,,,0.02,,2013-07-15 00:43:00,
2013-07-14 20:53:00,79.0,72.0,30.26,West,263,0.0,1.0,79,0.00,,,0.02,,2013-07-15 00:53:00,
2013-07-14 21:01:00,79.0,72.0,30.26,West,263,0.0,1.0,80,0.00,,,0.02,,2013-07-15 01:01:00,
2013-07-14 21:11:00,78.0,71.0,30.26,West,263,0.0,2.0,80,0.00,,,0.02,,2013-07-15 01:11:00,
2013-07-14 21:22:00,78.0,72.0,30.26,West,263,0.0,1.0,81,0.00,,,0.02,,2013-07-15 01:22:00,
2013-07-14 21:32:00,78.0,72.0,30.26,West,263,0.0,2.0,81,0.00,,,0.02,,2013-07-15 01:32:00,
2013-07-14 21:43:00,78.0,72.0,30.26,West,263,0.0,2.0,81,0.00,,,0.02,,2013-07-15 01:43:00,
2013-07-14 21:53:00,78.0,72.0,30.26,West,263,0.0,1.0,82,0.00,,,0.02,,2013-07-15 01:53:00,
2013-07-14 22:02:00,78.0,72.0,30.26,West,263,0.0,2.0,82,0.00,,,0.02,,2013-07-15 02:02:00,
2013-07-14 22:11:00,78.0,72.0,30.26,West,263,0.0,2.0,83,0.00,,,0.02,,2013-07-15 02:11:00,
2013-07-14 22:22:00,78.0,72.0,30.26,West,269,0.0,6.0,82,0.00,,,0.02,,2013-07-15 02:22:00,
2013-07-14 22:32:00,78.0,72.0,30.26,West,269,0.0,1.0,82,0.00,,,0.02,,2013-07-15 02:32:00,
2013-07-14 22:42:00,77.0,71.0,30.26,West,269,0.0,2.0,83,0.00,,,0.02,,2013-07-15 02:42:00,
2013-07-14 22:53:00,77.0,71.0,30.26,West,269,0.0,2.0,82,0.00,,,0.02,,2013-07-15 02:53:00,
2013-07-14 23:02:00,77.0,71.0,30.26,West,269,0.0,1.0,82,0.00,,,0.02,,2013-07-15 03:02:00,
2013-07-14 23:11:00,77.0,71.0,30.26,WSW,240,0.0,3.0,81,0.00,,,0.02,,2013-07-15 03:11:00,
2013-07-14 23:22:00,77.0,71.0,30.26,WSW,240,0.0,1.0,82,0.00,,,0.02,,2013-07-15 03:22:00,
2013-07-14 23:32:00,76.0,71.0,30.26,WSW,240,0.0,1.0,84,0.00,,,0.01,,2013-07-15 03:32:00,
2013-07-14 23:43:00,76.0,71.0,30.26,WSW,240,0.0,0.0,84,0.00,,,0.01,,2013-07-15 03:43:00,
2013-07-14 23:53:00,76.0,71.0,30.26,WSW,240,0.0,1.0,85,0.00,,,0.01,,2013-07-15 03:53:00,